Time,TemperatureF,DewpointF,PressureIn,WindDirection,WindDirectionDegrees,WindSpeedMPH,WindSpeedGustMPH,Humidity,HourlyPrecipIn,Conditions,Clouds,dailyrainin,SoftwareType,DateUTC
2013-02-16 00:02:00,33.0,31.0,29.96,North,360,0.0,0.0,92,0.00,,,0.19,,2013-02-16 05:02:00,
2013-02-16 00:12:00,33.0,31.0,29.96,North,360,0.0,0.0,92,0.00,,,0.19,,2013-02-16 05:12:00,
2013-02-16 00:22:00,33.0,31.0,29.96,North,360,0.0,1.0,93,0.00,,,0.19,,2013-02-16 05:22:00,
2013-02-16 00:32:00,33.0,31.0,29.96,North,360,0.0,1.0,93,0.00,,,0.19,,2013-02-16 05:32:00,
2013-02-16 00:42:00,33.0,31.0,29.96,North,360,0.0,1.0,93,0.00,,,0.19,,2013-02-16 05:42:00,
2013-02-16 00:52:00,33.0,31.0,29.96,North,360,0.0,0.0,93,0.00,,,0.19,,2013-02-16 05:52:00,
2013-02-16 01:02:00,33.0,31.0,29.96,North,360,0.0,0.0,93,0.00,,,0.19,,2013-02-16 06:02:00,
2013-02-16 01:11:00,33.0,31.0,29.96,North,360,0.0,0.0,93,0.00,,,0.19,,2013-02-16 06:11:00,
2013-02-16 01:21:00,33.0,31.0,29.95,North,360,0.0,0.0,93,0.00,,,0.19,,2013-02-16 06:21:00,
2013-02-16 01:32:00,33.0,31.0,29.95,North,360,0.0,0.0,93,0.00,,,0.19,,2013-02-16 06:32:00,
2013-02-16 01:42:00,33.0,31.0,29.95,North,360,0.0,0.0,93,0.00,,,0.19,,2013-02-16 06:42:00,
2013-02-16 01:52:00,32.0,30.0,29.95,North,360,0.0,0.0,93,0.00,,,0.19,,2013-02-16 06:52:00,
2013-02-16 02:02:00,32.0,30.0,29.95,North,360,0.0,0.0,93,0.00,,,0.19,,2013-02-16 07:02:00,
2013-02-16 02:11:00,32.0,30.0,29.95,North,360,0.0,0.0,93,0.00,,,0.19,,2013-02-16 07:11:00,
2013-02-16 02:21:00,32.0,30.0,29.93,North,360,0.0,2.0,93,0.00,,,0.19,,2013-02-16 07:21:00,
2013-02-16 02:32:00,32.0,30.0,29.93,North,360,0.0,2.0,93,0.00,,,0.19,,2013-02-16 07:32:00,
2013-02-16 02:42:00,32.0,30.0,29.93,North,360,0.0,2.0,93,0.00,,,0.19,,2013-02-16 07:42:00,
2013-02-16 02:53:00,32.0,30.0,29.93,North,360,0.0,0.0,93,0.00,,,0.19,,2013-02-16 07:53:00,
2013-02-16 03:01:00,32.0,30.0,29.93,North,360,0.0,0.0,93,0.00,,,0.19,,2013-02-16 08:01:00,
2013-02-16 03:11:00,32.0,30.0,29.93,North,360,0.0,0.0,93,0.00,,,0.19,,2013-02-16 08:11:00,
2013-02-16 03:21:00,32.0,30.0,29.93,North,360,0.0,2.0,94,0.00,,,0.19,,2013-02-16 08:21:00,
2013-02-16 03:31:00,32.0,30.0,29.93,North,360,0.0,2.0,94,0.00,,,0.19,,2013-02-16 08:31:00,
2013-02-16 03:42:00,32.0,30.0,29.93,North,360,0.0,2.0,94,0.00,,,0.19,,2013-02-16 08:42:00,
2013-02-16 03:52:00,32.0,30.0,29.92,North,360,0.0,0.0,94,0.00,,,0.19,,2013-02-16 08:52:00,
2013-02-16 04:02:00,32.0,30.0,29.92,North,360,0.0,0.0,94,0.00,,,0.19,,2013-02-16 09:02:00,
2013-02-16 04:11:00,32.0,30.0,29.92,North,360,0.0,0.0,94,0.00,,,0.19,,2013-02-16 09:11:00,
2013-02-16 04:21:00,32.0,30.0,29.91,North,360,0.0,0.0,94,0.00,,,0.19,,2013-02-16 09:21:00,
2013-02-16 04:32:00,32.0,30.0,29.91,North,360,0.0,0.0,94,0.00,,,0.19,,2013-02-16 09:32:00,
2013-02-16 04:42:00,32.0,30.0,29.91,North,360,0.0,0.0,94,0.00,,,0.19,,2013-02-16 09:42:00,
2013-02-16 04:52:00,32.0,30.0,29.92,North,360,0.0,2.0,94,0.00,,,0.19,,2013-02-16 09:52:00,
2013-02-16 05:01:00,32.0,30.0,29.92,North,360,0.0,2.0,94,0.00,,,0.19,,2013-02-16 10:01:00,
2013-02-16 05:11:00,32.0,30.0,29.92,North,360,0.0,2.0,94,0.00,,,0.19,,2013-02-16 10:11:00,
2013-02-16 05:21:00,32.0,30.0,29.91,North,360,0.0,2.0,94,0.00,,,0.19,,2013-02-16 10:21:00,
2013-02-16 05:32:00,32.0,30.0,29.91,North,360,0.0,2.0,94,0.00,,,0.19,,2013-02-16 10:32:00,
2013-02-16 05:42:00,32.0,30.0,29.91,North,360,0.0,2.0,94,0.00,,,0.19,,2013-02-16 10:42:00,
2013-02-16 05:52:00,32.0,30.0,29.92,North,360,0.0,1.0,94,0.00,,,0.19,,2013-02-16 10:52:00,
2013-02-16 06:02:00,32.0,30.0,29.92,North,360,0.0,1.0,94,0.00,,,0.19,,2013-02-16 11:02:00,
2013-02-16 06:11:00,32.0,30.0,29.92,North,360,0.0,1.0,94,0.00,,,0.19,,2013-02-16 11:11:00,
2013-02-16 06:22:00,32.0,30.0,29.92,North,360,0.0,0.0,94,0.00,,,0.19,,2013-02-16 11:22:00,
2013-02-16 06:32:00,32.0,30.0,29.92,North,360,0.0,0.0,94,0.00,,,0.19,,2013-02-16 11:32:00,
2013-02-16 06:42:00,32.0,30.0,29.92,North,360,0.0,0.0,94,0.00,,,0.19,,2013-02-16 11:42:00,
2013-02-16 06:52:00,32.0,30.0,29.93,North,360,0.0,0.0,94,0.00,,,0.19,,2013-02-16 11:52:00,
2013-02-16 07:02:00,32.0,30.0,29.93,North,360,0.0,0.0,94,0.00,,,0.19,,2013-02-16 12:02:00,
2013-02-16 07:12:00,32.0,30.0,29.93,North,360,0.0,0.0,94,0.00,,,0.19,,2013-02-16 12:12:00,
2013-02-16 07:22:00,32.0,31.0,29.93,North,360,2.0,5.0,95,0.00,,,0.19,,2013-02-16 12:22:00,
2013-02-16 07:32:00,32.0,31.0,29.93,North,360,2.0,5.0,95,0.00,,,0.19,,2013-02-16 12:32:00,
2013-02-16 07:42:00,32.0,31.0,29.93,North,360,2.0,5.0,95,0.00,,,0.19,,2013-02-16 12:42:00,
2013-02-16 07:52:00,32.0,31.0,29.94,NE,43,0.0,5.0,95,0.00,,,0.19,,2013-02-16 12:52:00,
2013-02-16 08:02:00,32.0,31.0,29.94,NE,43,0.0,5.0,95,0.00,,,0.19,,2013-02-16 13:02:00,
2013-02-16 08:12:00,32.0,31.0,29.94,NE,43,0.0,5.0,95,0.00,,,0.19,,2013-02-16 13:12:00,
2013-02-16 08:22:00,32.0,30.0,29.93,NE,43,1.0,7.0,94,0.00,,,0.19,,2013-02-16 13:22:00,
2013-02-16 08:32:00,32.0,30.0,29.93,NE,43,1.0,7.0,94,0.00,,,0.19,,2013-02-16 13:32:00,
2013-02-16 08:42:00,32.0,30.0,29.93,NE,43,1.0,7.0,94,0.00,,,0.19,,2013-02-16 13:42:00,
2013-02-16 08:52:00,32.0,30.0,29.93,NNE,26,3.0,7.0,94,0.00,,,0.19,,2013-02-16 13:52:00,
2013-02-16 09:01:00,32.0,30.0,29.93,NNE,26,3.0,7.0,94,0.00,,,0.19,,2013-02-16 14:01:00,
2013-02-16 09:11:00,32.0,30.0,29.93,NNE,26,3.0,7.0,94,0.00,,,0.19,,2013-02-16 14:11:00,
2013-02-16 09:21:00,32.0,31.0,29.93,NE,49,1.0,6.0,95,0.00,,,0.19,,2013-02-16 14:21:00,
2013-02-16 09:32:00,32.0,31.0,29.93,NE,49,1.0,6.0,95,0.00,,,0.19,,2013-02-16 14:32:00,
2013-02-16 09:42:00,32.0,31.0,29.93,NE,49,1.0,6.0,95,0.00,,,0.19,,2013-02-16 14:42:00,
2013-02-16 09:52:00,33.0,31.0,29.93,NNE,13,5.0,8.0,94,0.01,,,0.20,,2013-02-16 14:52:00,
2013-02-16 10:02:00,33.0,31.0,29.93,NNE,13,5.0,8.0,94,0.01,,,0.20,,2013-02-16 15:02:00,
2013-02-16 10:11:00,33.0,31.0,29.93,NNE,13,5.0,8.0,94,0.01,,,0.20,,2013-02-16 15:11:00,
2013-02-16 10:22:00,33.0,31.0,29.92,NE,38,4.0,8.0,93,0.01,,,0.20,,2013-02-16 15:22:00,
2013-02-16 10:32:00,33.0,31.0,29.92,NE,38,4.0,8.0,93,0.01,,,0.20,,2013-02-16 15:32:00,
2013-02-16 10:42:00,33.0,31.0,29.92,NE,38,4.0,8.0,93,0.01,,,0.20,,2013-02-16 15:42:00,
2013-02-16 10:52:00,35.0,33.0,29.92,NNE,28,3.0,8.0,91,0.00,,,0.20,,2013-02-16 15:52:00,
2013-02-16 11:01:00,35.0,33.0,29.92,NNE,28,3.0,8.0,91,0.00,,,0.20,,2013-02-16 16:01:00,
2013-02-16 11:11:00,35.0,33.0,29.92,NNE,28,3.0,8.0,91,0.00,,,0.20,,2013-02-16 16:11:00,
2013-02-16 11:21:00,35.0,32.0,29.92,NNE,27,3.0,8.0,87,0.00,,,0.20,,2013-02-16 16:21:00,
2013-02-16 11:32:00,35.0,32.0,29.92,NNE,27,3.0,8.0,87,0.00,,,0.20,,2013-02-16 16:32:00,
2013-02-16 11:42:00,35.0,32.0,29.92,NNE,27,3.0,8.0,87,0.00,,,0.20,,2013-02-16 16:42:00,
2013-02-16 11:52:00,35.0,31.0,29.91,NNE,22,2.0,8.0,84,0.00,,,0.20,,2013-02-16 16:52:00,
2013-02-16 12:01:00,35.0,31.0,29.91,NNE,22,2.0,8.0,84,0.00,,,0.20,,2013-02-16 17:01:00,
2013-02-16 12:11:00,35.0,31.0,29.91,NNE,22,2.0,8.0,84,0.00,,,0.20,,2013-02-16 17:11:00,
2013-02-16 12:22:00,36.0,31.0,29.90,NE,44,2.0,9.0,81,0.00,,,0.20,,2013-02-16 17:22:00,
2013-02-16 12:32:00,36.0,31.0,29.90,NE,44,2.0,9.0,81,0.00,,,0.20,,2013-02-16 17:32:00,
2013-02-16 12:42:00,36.0,31.0,29.90,NE,44,2.0,9.0,81,0.00,,,0.20,,2013-02-16 17:42:00,
2013-02-16 12:52:00,36.0,30.0,29.87,NE,51,6.0,9.0,79,0.00,,,0.20,,2013-02-16 17:52:00,
2013-02-16 13:02:00,36.0,30.0,29.87,NE,51,6.0,9.0,79,0.00,,,0.20,,2013-02-16 18:02:00,
2013-02-16 13:11:00,36.0,30.0,29.85,North,5,3.0,8.0,79,0.00,,,0.20,,2013-02-16 18:11:00,
2013-02-16 13:21:00,36.0,30.0,29.85,North,5,3.0,8.0,79,0.00,,,0.20,,2013-02-16 18:21:00,
2013-02-16 13:33:00,36.0,30.0,29.85,North,5,3.0,8.0,79,0.00,,,0.20,,2013-02-16 18:33:00,
2013-02-16 13:42:00,36.0,30.0,29.85,North,5,3.0,8.0,79,0.00,,,0.20,,2013-02-16 18:42:00,
2013-02-16 13:52:00,37.0,30.0,29.85,NNE,24,1.0,6.0,77,0.00,,,0.20,,2013-02-16 18:52:00,
2013-02-16 14:02:00,37.0,30.0,29.85,NNE,24,1.0,6.0,77,0.00,,,0.20,,2013-02-16 19:02:00,
2013-02-16 14:11:00,37.0,30.0,29.85,NNE,24,1.0,6.0,77,0.00,,,0.20,,2013-02-16 19:11:00,
2013-02-16 14:22:00,37.0,29.0,29.85,NNE,12,3.0,8.0,74,0.00,,,0.20,,2013-02-16 19:22:00,
2013-02-16 14:32:00,37.0,29.0,29.85,NNE,12,3.0,8.0,74,0.00,,,0.20,,2013-02-16 19:32:00,
2013-02-16 14:42:00,37.0,29.0,29.85,NNE,12,3.0,8.0,74,0.00,,,0.20,,2013-02-16 19:42:00,
2013-02-16 14:52:00,37.0,28.0,29.84,North,9,4.0,6.0,70,0.00,,,0.20,,2013-02-16 19:52:00,
2013-02-16 15:01:00,37.0,28.0,29.84,North,9,4.0,6.0,70,0.00,,,0.20,,2013-02-16 20:01:00,
2013-02-16 15:11:00,36.0,26.0,29.83,North,350,2.0,9.0,68,0.00,,,0.20,,2013-02-16 20:11:00,
2013-02-16 15:22:00,36.0,26.0,29.83,North,350,2.0,9.0,68,0.00,,,0.20,,2013-02-16 20:22:00,
2013-02-16 15:32:00,36.0,26.0,29.83,North,350,2.0,9.0,68,0.00,,,0.20,,2013-02-16 20:32:00,
2013-02-16 15:42:00,36.0,26.0,29.83,North,350,2.0,9.0,68,0.00,,,0.20,,2013-02-16 20:42:00,
2013-02-16 15:52:00,36.0,28.0,29.83,NNE,28,3.0,7.0,71,0.00,,,0.20,,2013-02-16 20:52:00,
2013-02-16 16:02:00,36.0,28.0,29.83,NNE,28,3.0,7.0,71,0.00,,,0.20,,2013-02-16 21:02:00,
2013-02-16 16:11:00,36.0,28.0,29.83,NNE,28,3.0,7.0,71,0.00,,,0.20,,2013-02-16 21:11:00,
2013-02-16 16:21:00,36.0,26.0,29.83,NNW,339,3.0,8.0,67,0.00,,,0.20,,2013-02-16 21:21:00,
2013-02-16 16:32:00,36.0,26.0,29.83,NNW,339,3.0,8.0,67,0.00,,,0.20,,2013-02-16 21:32:00,
2013-02-16 16:42:00,36.0,26.0,29.83,NNW,339,3.0,8.0,67,0.00,,,0.20,,2013-02-16 21:42:00,
2013-02-16 16:52:00,35.0,26.0,29.83,NW,322,2.0,8.0,68,0.00,,,0.20,,2013-02-16 21:52:00,
2013-02-16 17:01:00,35.0,26.0,29.83,NW,322,2.0,8.0,68,0.00,,,0.20,,2013-02-16 22:01:00,
2013-02-16 17:11:00,35.0,26.0,29.83,NW,322,2.0,8.0,68,0.00,,,0.20,,2013-02-16 22:11:00,
2013-02-16 17:21:00,34.0,25.0,29.83,North,10,1.0,7.0,68,0.00,,,0.20,,2013-02-16 22:21:00,
2013-02-16 17:32:00,34.0,25.0,29.83,North,10,1.0,7.0,68,0.00,,,0.20,,2013-02-16 22:32:00,
2013-02-16 17:42:00,34.0,25.0,29.83,North,10,1.0,7.0,68,0.00,,,0.20,,2013-02-16 22:42:00,
2013-02-16 17:52:00,34.0,24.0,29.84,North,10,1.0,8.0,67,0.00,,,0.20,,2013-02-16 22:52:00,
2013-02-16 18:02:00,34.0,24.0,29.84,North,10,1.0,8.0,67,0.00,,,0.20,,2013-02-16 23:02:00,
2013-02-16 18:11:00,34.0,24.0,29.84,North,10,1.0,8.0,67,0.00,,,0.20,,2013-02-16 23:11:00,
2013-02-16 18:21:00,33.0,22.0,29.84,North,355,3.0,7.0,63,0.00,,,0.20,,2013-02-16 23:21:00,
2013-02-16 18:32:00,33.0,22.0,29.84,North,355,3.0,7.0,63,0.00,,,0.20,,2013-02-16 23:32:00,
2013-02-16 18:42:00,33.0,22.0,29.84,North,355,3.0,7.0,63,0.00,,,0.20,,2013-02-16 23:42:00,
2013-02-16 18:52:00,32.0,21.0,29.85,NW,312,2.0,7.0,64,0.00,,,0.19,,2013-02-16 23:52:00,
2013-02-16 19:02:00,32.0,21.0,29.85,NW,312,2.0,7.0,64,0.00,,,0.19,,2013-02-17 00:02:00,
2013-02-16 19:12:00,32.0,21.0,29.85,NW,312,2.0,7.0,64,0.00,,,0.19,,2013-02-17 00:12:00,
2013-02-16 19:22:00,32.0,22.0,29.85,NW,312,1.0,6.0,66,0.00,,,0.19,,2013-02-17 00:22:00,
2013-02-16 19:32:00,32.0,22.0,29.85,NW,312,1.0,6.0,66,0.00,,,0.19,,2013-02-17 00:32:00,
2013-02-16 19:42:00,32.0,22.0,29.85,NW,312,1.0,6.0,66,0.00,,,0.19,,2013-02-17 00:42:00,
2013-02-16 19:52:00,32.0,22.0,29.84,NNW,334,3.0,7.0,66,0.00,,,0.18,,2013-02-17 00:52:00,
2013-02-16 20:01:00,32.0,22.0,29.84,NNW,334,3.0,7.0,66,0.00,,,0.18,,2013-02-17 01:01:00,
2013-02-16 20:11:00,32.0,22.0,29.84,NNW,334,3.0,7.0,66,0.00,,,0.18,,2013-02-17 01:11:00,
2013-02-16 20:21:00,31.0,21.0,29.83,NNW,329,3.0,6.0,67,0.00,,,0.18,,2013-02-17 01:21:00,
2013-02-16 20:32:00,31.0,21.0,29.83,NNW,329,3.0,6.0,67,0.00,,,0.18,,2013-02-17 01:32:00,
2013-02-16 20:42:00,31.0,21.0,29.83,NNW,329,3.0,6.0,67,0.00,,,0.18,,2013-02-17 01:42:00,
2013-02-16 20:52:00,31.0,21.0,29.83,NW,315,3.0,8.0,65,0.00,,,0.09,,2013-02-17 01:52:00,
2013-02-16 21:01:00,31.0,21.0,29.83,NW,315,3.0,8.0,65,0.00,,,0.09,,2013-02-17 02:01:00,
2013-02-16 21:11:00,31.0,21.0,29.83,NW,315,3.0,8.0,65,0.00,,,0.09,,2013-02-17 02:11:00,
2013-02-16 21:21:00,31.0,20.0,29.82,NW,313,5.0,9.0,62,0.00,,,0.09,,2013-02-17 02:21:00,
2013-02-16 21:32:00,31.0,20.0,29.82,NW,313,5.0,9.0,62,0.00,,,0.09,,2013-02-17 02:32:00,
2013-02-16 21:42:00,31.0,20.0,29.82,NW,313,5.0,9.0,62,0.00,,,0.09,,2013-02-17 02:42:00,
2013-02-16 21:52:00,31.0,19.0,29.82,WNW,298,4.0,10.0,61,0.00,,,0.03,,2013-02-17 02:52:00,
2013-02-16 22:02:00,31.0,19.0,29.82,WNW,298,4.0,10.0,61,0.00,,,0.03,,2013-02-17 03:02:00,
2013-02-16 22:11:00,31.0,19.0,29.82,WNW,298,4.0,10.0,61,0.00,,,0.03,,2013-02-17 03:11:00,
2013-02-16 22:21:00,31.0,20.0,29.82,WNW,294,6.0,11.0,62,0.01,,,0.04,,2013-02-17 03:21:00,
2013-02-16 22:32:00,31.0,20.0,29.82,WNW,294,6.0,11.0,62,0.01,,,0.04,,2013-02-17 03:32:00,
2013-02-16 22:42:00,31.0,20.0,29.82,WNW,294,6.0,11.0,62,0.01,,,0.04,,2013-02-17 03:42:00,
2013-02-16 22:52:00,31.0,20.0,29.81,NW,316,5.0,11.0,62,0.01,,,0.02,,2013-02-17 03:52:00,
2013-02-16 23:01:00,31.0,20.0,29.81,NW,316,5.0,11.0,62,0.01,,,0.02,,2013-02-17 04:01:00,
2013-02-16 23:11:00,30.0,19.0,29.80,NNW,342,4.0,13.0,64,0.00,,,0.02,,2013-02-17 04:11:00,
2013-02-16 23:21:00,30.0,19.0,29.80,NNW,342,4.0,13.0,64,0.00,,,0.02,,2013-02-17 04:21:00,
2013-02-16 23:31:00,30.0,19.0,29.80,NNW,342,4.0,13.0,64,0.00,,,0.02,,2013-02-17 04:31:00,
2013-02-16 23:42:00,30.0,19.0,29.80,NNW,342,4.0,13.0,64,0.00,,,0.02,,2013-02-17 04:42:00,
2013-02-16 23:52:00,29.0,19.0,29.80,NW,312,6.0,13.0,66,0.00,,,0.02,,2013-02-17 04:52:00,